Regional Weather Roundup
Issued by NWS

Home | Current Version | Previous Version | Graphics & Text | Print | Product List | Glossary On
Versions: 1 2 3 4 5 6 7 8 9 10 11 12 13 14 15 16 17 18 19 20 21 22 23 24 25 26 27 28 29 30 31 32 33 34 35 36 37 38 39 40 41 42 43 44 45 46 47 48 49 50
000
ASUS45 KABQ 312001
RWRNM
WEATHER ROUNDUP FOR NEW MEXICO
NATIONAL WEATHER SERVICE ALBUQUERQUE NM
200 PM MDT SUN AUG 31 2014

NOTE: "FAIR" MEANS FEW OR NO CLOUDS BELOW 12,000 FEET AGL WITH NO
       SIGNIFICANT WEATHER OR OBSTRUCTIONS TO VISION.

      THIS PRODUCT IS RELEASED AS TWO VERSIONS.  ONE VERSION NEAR
      THE TOP OF THE HOUR CONTAINING PRELIMINARY DATA FROM ALBUQUERQUE
      AND OTHER STATIONS.  A FINAL VERSION WITH ADDITIONAL DATA IS
      ISSUED ABOUT 10 MINUTES AFTER THE HOUR.

NMZ501-503-504-510>518-312100-
NORTHWEST PLATEAU/NORTHCENTRAL MOUNTAINS

CITY           SKY/WX    TMP DP  RH WIND       PRES   REMARKS
FARMINGTON     SUNNY     89  32  13 W21G29    30.01F
LOS ALAMOS     MOSUNNY   79  32  17 SE6G17    30.17F
SANTA FE       SUNNY     87  34  15 W22G30    30.09F
ANGEL FIRE     FAIR      74  32  21 W24G35    30.21F

$$
NMZ402-403-502-505>509-312100-
WESTCENTRAL MOUNTAINS/SOUTHWEST MOUNTAINS

CITY           SKY/WX    TMP DP  RH WIND       PRES   REMARKS
GALLUP         SUNNY     86  34  15 SW22G32   30.15F
SILVER CITY    SUNNY     90  36  14 W15G24    30.14F

$$
NMZ407-409-411-412-312100-
SOUTHERN DESERTS

CITY           SKY/WX    TMP DP  RH WIND       PRES   REMARKS
LORDSBURG      FAIR      91  43  18 NW7       30.05F
DEMING         SUNNY     95  39  14 SW16      30.03F
LAS CRUCES     MOSUNNY   95  38  13 NW7G18    30.04F
HOLLOMAN AFB   SUNNY     95  43  16 W12G18    29.98F
ALAMOGORDO     SUNNY     93  41  16 NW9G21    30.01F
T OR C         SUNNY     94  39  14 SW14      30.03F

$$
NMZ519>523-312100-
CENTRAL VALLEYS/CENTRAL HIGHLANDS

CITY           SKY/WX    TMP DP  RH WIND       PRES   REMARKS
ALBUQUERQUE    MOSUNNY   89  35  14 SW12G21   30.05F
DOUBLE EAGLE   MOSUNNY   88  37  16 SW16G23   30.09F
CLINES CORNERS SUNNY     83  35  18 W28G33    30.16F
BELEN          FAIR      92  37  14 SW14G26   30.05F
SOCORRO        FAIR      92  40  16 SW9       30.03F

$$
NMZ524>526-539-540-312100-
SOUTHCENTRAL MOUNTAINS

CITY           SKY/WX    TMP DP  RH WIND       PRES   REMARKS
RUIDOSO        NOT AVBL

$$
NMZ527>531-312100-
NORTHEAST HIGHLANDS/NORTHEAST PLAINS

CITY           SKY/WX    TMP DP  RH WIND       PRES   REMARKS
LAS VEGAS      SUNNY     82  37  20 W20G35    30.12S
RATON          SUNNY     88  34  14 W22G35    30.00F
CLAYTON        SUNNY     93  42  17 SW25G33   29.90F

$$
NMZ532>537-312100-
EASTCENTRAL PLAINS

CITY           SKY/WX    TMP DP  RH WIND       PRES   REMARKS
TUCUMCARI      SUNNY    101  37  11 SW20G36   29.89F HX  95
CANNON AFB     SUNNY     96  44  16 W15G30    29.95F
CLOVIS AIRPORT   N/A     97  45  16 SW18G33   29.97F

$$
NMZ028-029-538-312100-
SOUTHEAST PLAINS

CITY           SKY/WX    TMP DP  RH WIND       PRES   REMARKS
ROSWELL        SUNNY    100  42  13 SW10G18   29.91F HX  95
CARLSBAD       SUNNY    101  41  12 MISG      29.89F HX  96
HOBBS          MOSUNNY   95  52  23 S8G18     29.97F


$$



USA.gov is the U.S. government's official web portal to all federal, state and local government web resources and services.